sat.trackr.live / text

‹ back to catalog

STARLINK-4107

NORAD 53287 · 2022-086AX

PAYLOAD ACTIVE UNKNOWN

§ Identity

Operator
Country
US
Launch date
2022-07-24
Launch site
AFETR
Launch vehicle
Mass (kg)
RCS (m²)

Purposes: comms

External: N2YO · Heavens-Above · Gunter

§ Orbital elements

Epoch: 2026-05-25T03:48:52.690752Z

Period
95.44 min
Inclination
53.2139°
Eccentricity
0.0001140
Mean motion
15.08832421 rev/d
Perigee alt
539.0 km
Apogee alt
540.6 km
Semi-major
6,917.9 km
B*
-2.3637e-5
RAAN
200.8361°
Arg perigee
89.8818°
Mean anomaly
270.2304°
Rev number
21,273

§ Raw data

STARLINK-41071 53287U 22086AX  26145.15894318 -.00000664  00000+0 -23637-4 0  99922 53287  53.2139 200.8361 0001140  89.8818 270.2304 15.08832421212735

JSON: /api/v1/satellites/53287 · /tle

For live sub-satellite position, see the globe view (requires WebGL).

§ Visibility from observer

Set your observer location to see the next 7 days of passes ≥ 10°. The values pass through the URL so the page stays shareable.

No JS? Fill the form by hand. The geolocation button needs JavaScript.